Location: Mana�l
(15.0115°N, 12.5022°W)
Time: 12:20:33
(UTC+00:00)

STARLINK-1038 - Pass Details

Date: 07 June 2020
Orbit: 549 x 551 km, 53.0° (Epoch: 06 July)

Event Time Altitude Azimuth Distance (km) Brightness Sun altitude
Exits shadow 04:47:40 56° 273° (W) 651 3.6 -20.4°
Maximum altitude 04:48:08 61° 307° (NW) 622 3.7 -20.3°
Drops below altitude 10° 04:52:12 10° 27° (NNE) 1,810 7.1 -19.5°
Sets 04:54:27 0° 31° (NNE) 2,704 8.2 -19.0°
